Home   Weather   Babylon   Past weeks

Flag for USA Past Weather in Babylon, New York, USA — Yesterday and Last 2 Weeks

Now
53 °F

Fog.


Feels Like: 49 °F
Forecast: 53 / 60 °F
Wind: 13 mph from Northeast

Location: Republic Airport

Current Time: Apr 26, 2017 at 6:23:55 am

Latest Report: Apr 26, 2017 at 5:53 am


Visibility: 4 mi

Pressure: 29.74 "Hg

Humidity: 96%

Dew Point: 52 °F

Location of BabylonLocation

Past Weather in Babylon — Graph

°F

Babylon Temperature Yesterday

Maximum temperature yesterday: 58 °F (at 10:53 pm)
Minimum temperature yesterday: 50 °F (at 4:37 am)
Average temperature yesterday: 53 °F

High & Low Weather Summary for the Past Weeks

 TemperatureHumidityPressure
High81 °F (Apr 16, 12:53 pm)100% (Apr 16, 3:01 am)30.55 "Hg (Apr 16, 3:01 am)
Low39 °F (Apr 15, 4:53 am)19% (Apr 17, 3:53 pm)29.74 "Hg (Apr 26, 3:53 am)
Average54 °F74%30.13 "Hg
* Reported Apr 11 4:53 am — Apr 26 4:53 am, Babylon, Weather by CustomWeather, © 2017

Note: Actual official high and low records may vary slightly from our data, if they occured in-between our weather recording intervals... More about our weather records

Advertising

Babylon Weather History for the Previous 24 Hours

Scroll right to see more
 ConditionsComfort  
Time TempWeatherWind HumidityBarometerVisibility
4:53 am
Wed, Apr 26
53 °FLight rain. Fog.9 mph96%29.75 "Hg3 mi
4:33 am54 °FLight rain. Fog.12 mph97%29.75 "Hg2 mi
3:53 am53 °FFog.13 mph100%29.74 "Hg6 mi
2:53 am55 °FLow clouds.10 mph96%29.76 "Hg10 mi
2:33 am56 °FLow clouds.10 mph97%29.77 "Hg10 mi
1:53 am54 °FLow clouds.7 mph97%29.78 "Hg10 mi
12:53 am58 °FLow clouds.16 mph97%29.80 "Hg10 mi
11:53 pm
Tue, Apr 25
57 °FLow clouds.16 mph96%29.84 "Hg10 mi
10:53 pm58 °FLight rain. Low clouds.18 mph93%29.87 "Hg10 mi
9:53 pm57 °FLight rain. Low clouds.14 mph96%29.87 "Hg10 mi
9:36 pm57 °FLight rain. Low clouds.12 mph93%29.88 "Hg10 mi
9:03 pm55 °FRain. Fog.18 mph96%29.89 "Hg2 mi
8:53 pm54 °FMostly cloudy.16 mph97%29.89 "Hg2 mi
7:53 pm52 °FRain. Fog.14 mph97%29.90 "Hg2 mi
7:20 pm52 °FRain. Fog.16 mph97%29.91 "Hg2 mi
7:00 pm52 °FRain. Fog.13 mph97%29.92 "Hg2 mi
6:12 pm53 °FLight rain. Fog.13 mph93%29.94 "Hg2 mi
6:03 pm53 °FLight rain. Fog.13 mph93%29.95 "Hg2 mi
5:53 pm53 °FRain. Fog.15 mph93%29.94 "Hg2 mi
5:05 pm53 °FLight rain. Fog.13 mph96%29.95 "Hg2 mi
3:53 pm54 °FLow clouds.14 mph93%29.98 "Hg10 mi
2:54 pm55 °FLow clouds.16 mph96%30.00 "Hg10 mi
2:04 pm55 °FRain. Fog.14 mph96%30.02 "Hg2 mi
1:57 pm55 °FLight rain. Fog.14 mph93%30.03 "Hg4 mi
12:53 pm54 °FLight rain. Fog.10 mph97%30.06 "Hg6 mi
11:53 am54 °FLight rain. Low clouds.13 mph93%30.08 "Hg10 mi
10:53 am53 °FLight rain. Fog.13 mph96%30.09 "Hg2 mi
10:09 am53 °FLight rain. Fog.10 mph96%30.09 "Hg6 mi
10:04 am53 °FFog.9 mph96%30.09 "Hg2 mi
8:58 am52 °FMore clouds than sun.14 mph93%30.09 "Hg10 mi
7:53 am51 °FFog.14 mph92%30.09 "Hg2 mi
7:33 am51 °FMostly cloudy.12 mph92%30.09 "Hg10 mi
6:53 am50 °FLow clouds.13 mph96%30.08 "Hg10 mi
6:39 am50 °FMore clouds than sun.9 mph96%30.09 "Hg10 mi
Weather by CustomWeather, © 2017

See weather overviewHow to use our weather pages